Dewpoint
30 29 29 29 29 30 31 32 33 33 34 33 34 34 35 34 34 35 36 34 34 34
29 29 31 32 32 32 32 33 34 33 32 32 31 32 32 34 34 34 37 36 34 33
29 32 33 33 32 33 34 34 34 32 32 32 32 31 31 32 32 34 35 38 36 33
33 33 33 32 33 33 34 34 34 33 32 32 31 30 30 30 30 33 34 36 37 35
33 32 32 33 34 35 35 35 33 34 35 35 33 31 31 30 30 31 33 36 37 36
32 33 34 35 35 34 33 34 35 34 33 31 33 33 32 31 31 31 34 36 35 36
33 34 34 35 33 34 34 32 31 31 31 32 33 32 33 32 31 31 32 33 34 34
34 34 34 34 32 34 33 31 32 32 32 32 32 32 32 32 31 30 31 32 33 33
33 34 34 34 33 31 31 29 28 30 31 31 31 32 33 32 31 31 30 30 31 34
33 34 34 34 31 31 30 28 29 29 31 30 31 33 34 32 31 31 30 31 32 32
33 33 33 33 31 31 30 29 30 28 30 30 31 33 33 32 31 31 31 31 32 33
33 32 32 32 32 31 30 30 31 31 30 31 31 32 32 32 31 30 31 32 32 32
33 33 32 31 32 32 31 31 31 31 32 32 32 32 32 32 31 30 30 31 33 32
31 33 33 32 32 32 31 31 31 31 31 32 32 32 31 32 31 29 30 30 31 33
Wind_Speed
6 8 8 9 10 10 10 9 8 10 9 9 10 11 10 8 9 7 11 17 20 18
8 10 9 9 9 10 10 9 11 11 12 10 10 11 11 12 14 12 10 14 17 19
9 6 7 8 11 12 12 12 12 12 12 12 12 11 9 8 9 18 17 7 15 19
7 9 9 10 12 12 13 13 13 12 12 12 13 13 12 12 11 15 21 17 14 19
9 10 11 12 12 13 12 12 13 13 14 14 14 12 14 13 12 15 19 19 14 16
9 10 11 12 12 12 13 15 12 12 12 13 14 14 15 15 12 11 11 16 20 17
11 11 12 11 11 13 10 9 10 11 11 11 11 11 14 16 14 11 10 9 13 8
12 12 12 13 11 10 9 9 9 11 10 10 11 11 12 15 16 13 11 10 12 11
13 13 13 10 11 9 10 10 10 11 10 9 8 11 14 16 16 15 13 14 12 12
13 14 14 10 10 11 11 9 10 11 11 10 9 7 14 16 14 13 13 13 16 16
15 14 13 9 10 13 10 9 10 9 11 9 8 10 15 16 13 11 13 11 14 13
14 14 13 12 9 10 10 9 8 6 9 10 9 10 12 11 13 12 10 13 12 11
14 13 13 11 11 9 8 10 10 9 8 8 8 11 12 12 12 13 12 11 10 18
15 13 14 13 10 11 10 11 15 13 11 10 9 10 11 11 10 11 12 11 10 8
Wind_Direction
22 349 329 306 292 277 268 266 267 274 254 240 223 208 205 219 249 285 261 224 197 202
326 326 322 311 297 277 272 264 258 260 264 260 253 247 229 218 227 235 263 237 212 196
319 321 313 307 297 284 276 270 265 267 263 258 252 246 235 233 250 234 223 233 224 202
327 314 299 289 287 287 284 280 271 267 267 258 254 244 230 236 237 249 215 209 217 207
322 313 305 305 306 302 294 284 282 276 268 253 236 227 221 219 225 232 220 203 202 203
315 320 320 316 310 308 304 290 280 279 267 268 261 227 203 205 214 229 209 180 179 191
335 333 322 318 320 308 320 317 310 296 287 283 250 236 208 187 193 201 204 180 156 167
334 331 323 328 329 330 331 335 328 307 293 274 250 229 228 180 174 181 184 181 173 189
343 336 333 333 341 345 350 358 348 339 330 324 278 228 205 175 163 167 174 183 189 170
348 340 341 359 354 348 359 360 354 353 348 354 350 181 182 157 149 159 165 172 170 184
350 350 352 359 358 355 5 360 3 9 2 27 37 102 139 138 141 147 161 172 160 169
355 353 358 0 3 353 13 10 10 14 20 27 66 101 125 133 136 149 148 148 165 167
359 353 358 2 2 3 12 2 360 21 48 47 79 94 101 101 128 126 138 134 137 167
8 356 360 2 0 21 27 15 19 45 43 53 73 94 97 109 111 123 126 147 141 154